SENTINEL-5P

Last updated on Wed Sep 17 2025 00:02:31 GMT+0000 (Coordinated Universal Time)

1 42969U 17064A 25259.57609559 .00000064 00000+0 51397-4 0 9995 2 42969 98.7628 198.9978 0000980 77.7509 282.3777 14.19546439410743
UTC large
Height (km)
Speed (km/s)
/
Latitude / Longitude
Inclination (degrees)
Orbital Period (minutes)
Azimuth
Elevation
Range (km)
Doppler Factor

Next 0 passes for location: London (51.5072 / 0.1276)

Sorry there are no passes over London.